CST,Max TemperatureF,Mean TemperatureF,Min TemperatureF,Max Dew PointF,MeanDew PointF,Min DewpointF,Max Humidity, Mean Humidity, Min Humidity, Max Sea Level PressureIn, Mean Sea Level PressureIn, Min Sea Level PressureIn, Max VisibilityMiles, Mean VisibilityMiles, Min VisibilityMiles, Max Wind SpeedMPH, Mean Wind SpeedMPH, Max Gust SpeedMPH,PrecipitationIn, CloudCover, Events, WindDirDegrees
2013-1-1,55,50,45,54,50,44,100,84,68,30.09,30.04,29.96,10,5,2,23,5,26,1.40,8,Rain,30
2013-1-2,45,41,36,43,36,33,100,93,85,30.24,30.16,30.08,10,7,4,18,7,21,0.00,8,,349
2013-1-3,46,37,28,33,29,26,92,71,49,30.41,30.31,30.20,10,8,4,12,6,16,0.00,3,,340
2013-1-4,50,38,27,28,25,20,92,66,31,30.48,30.42,30.39,10,9,6,8,2,,0.00,0,,352
2013-1-5,50,41,31,40,29,23,93,65,36,30.44,30.37,30.30,10,10,7,8,2,9,0.08,5,Rain,32
2013-1-6,51,43,35,40,37,33,93,75,56,30.34,30.29,30.23,10,10,8,12,4,15,0.01,5,Rain,306
2013-1-7,56,41,26,33,29,24,100,66,32,30.41,30.34,30.29,10,9,5,10,3,15,0.00,0,,70
2013-1-8,62,52,41,47,40,30,72,63,53,30.35,30.28,30.25,10,10,10,13,5,18,0.00,3,,91
2013-1-9,61,57,52,59,53,47,96,87,77,30.38,30.33,30.29,10,9,7,10,5,17,0.06,7,Rain,77
2013-1-10,67,63,59,64,62,57,100,91,81,30.35,30.24,30.02,10,6,1,31,10,48,0.09,8,Rain,115
2013-1-11,70,67,63,65,63,59,100,89,78,30.17,30.11,30.08,10,6,1,18,7,29,0.32,8,Rain,180
2013-1-12,73,69,65,65,63,57,93,81,68,30.12,30.07,29.99,10,10,6,15,9,22,0.03,7,Rain,172
2013-1-13,71,68,64,66,62,46,87,80,73,30.13,30.01,29.93,10,6,1,15,10,25,0.66,8,Rain-Thunderstorm,205
2013-1-14,48,42,36,45,39,35,100,96,92,30.25,30.17,30.10,10,4,2,21,8,23,1.20,8,Rain,3
2013-1-15,51,45,39,50,43,38,100,96,92,30.14,30.06,29.96,7,2,0,12,4,13,0.67,8,Fog-Rain,353
2013-1-16,47,44,41,45,41,39,100,95,89,30.10,30.05,29.99,10,5,1,14,6,16,0.19,8,Rain,339
2013-1-17,41,37,33,40,34,30,96,88,79,30.40,30.05,29.92,10,5,0,24,10,31,0.43,7,Fog-Rain-Snow,329
2013-1-18,52,40,28,35,31,28,100,72,44,30.60,30.49,30.42,10,6,2,10,2,13,0.00,0,,12
2013-1-19,57,44,30,33,29,25,92,61,30,30.45,30.36,30.25,10,10,10,12,2,16,0.00,0,,179
2013-1-20,63,47,31,40,35,31,96,68,39,30.28,30.21,30.15,10,10,10,8,1,10,0.00,0,,296
2013-1-21,53,43,32,39,29,20,96,64,32,30.27,30.21,30.14,10,10,7,16,6,22,0.00,0,,354
2013-1-22,47,37,26,24,19,14,75,53,31,30.42,30.35,30.27,10,10,10,12,3,15,0.00,0,,343
2013-1-23,54,42,30,43,30,21,72,54,36,30.42,30.32,30.23,10,10,10,13,4,15,0.00,7,,213
2013-1-24,56,50,43,44,31,18,80,55,29,30.36,30.30,30.21,10,10,10,15,7,18,0.00,6,,351
2013-1-25,65,54,42,57,40,19,100,69,37,30.29,30.19,30.10,10,8,2,21,9,26,0.15,8,Rain,213
2013-1-26,58,49,39,47,38,28,100,67,33,30.33,30.27,30.19,10,8,0,14,4,16,T,5,,5
2013-1-27,60,54,48,39,33,30,66,49,32,30.38,30.32,30.29,10,10,10,15,7,20,0.00,6,,97
2013-1-28,67,59,50,54,49,37,93,74,54,30.35,30.28,30.21,10,10,6,6,6,6,0.00,4,,136
2013-1-29,72,62,51,64,60,50,100,87,73,30.21,30.06,29.82,10,7,2,20,8,29,T,7,,156
2013-1-30,71,55,39,66,52,27,93,74,55,30.02,29.72,29.64,10,6,0,32,16,43,1.82,8,Rain-Thunderstorm,240
2013-1-31,51,42,32,27,25,23,75,54,32,30.23,30.17,30.05,10,10,10,18,10,24,0.00,0,,258